Location: Newark
(49.8969°N, 3.3422°E)
Time: 23:04:46
(UTC+00:00)

A-11 Canister half - Pass Details

Date: 01 February 2020
Orbit: 1517 x 1683 km, 47.2° (Epoch: 19 February)

Event Time Altitude Azimuth Distance (km) Brightness Sun altitude
Rises 02:13:50 0° 281° (WNW) 4,705 - -47.8°
Reaches altitude 10° 02:16:56 10° 279° (W) 3,707 - -47.4°
Maximum altitude 02:26:02 62° 202° (SSW) 1,682 - -46.2°
Exits shadow 02:32:40 20° 129° (SE) 2,939 10.5 -45.3°
Drops below altitude 10° 02:35:05 10° 124° (SE) 3,682 11.1 -45.0°
Sets 02:38:10 0° 122° (ESE) 4,672 11.8 -44.6°
